| time (UTC) | temp F | wind direction | speed knots | gust knots | rain 1hr in | rain 24hr in | rain mn in | humidity % | barometer mb |
| 20260506200017 | 55 | 0 | 11.3 | 22.6 | 0.00 | 0.00 | 0.00 | 37 | 997.5 |
| 20260506193038 | 56 | 0 | 10.4 | 24.3 | 0.00 | 0.00 | 0.00 | 40 | 997.5 |
| 20260506190018 | 56 | 0 | 12.2 | 23.5 | 0.00 | 0.00 | 0.00 | 37 | 997.6 |
| 20260506183017 | 54 | 0 | 11.3 | 25.2 | 0.00 | 0.00 | 0.00 | 40 | 997.6 |
| 20260506180017 | 54 | 0 | 12.2 | 23.5 | 0.00 | 0.00 | 0.00 | 39 | 997.9 |
| 20260506173018 | 53 | 0 | 11.3 | 22.6 | 0.00 | 0.00 | 0.00 | 41 | 997.9 |
| 20260506170017 | 54 | 0 | 12.2 | 21.7 | 0.00 | 0.00 | 0.00 | 41 | 997.8 |
| 20260506163017 | 53 | 0 | 10.4 | 20.0 | 0.00 | 0.00 | 0.00 | 41 | 997.8 |
| 20260506160017 | 52 | 0 | 8.7 | 18.2 | 0.00 | 0.00 | 0.00 | 45 | 997.8 |
| 20260506153038 | 51 | 0 | 7.8 | 14.8 | 0.00 | 0.00 | 0.00 | 49 | 997.7 |
| 20260506150017 | 50 | 0 | 6.1 | 13.9 | 0.00 | 0.00 | 0.00 | 53 | 997.8 |
| 20260506143017 | 48 | 0 | 6.1 | 14.8 | 0.00 | 0.00 | 0.00 | 58 | 997.5 |
| 20260506140018 | 46 | 0 | 4.3 | 11.3 | 0.00 | 0.00 | 0.00 | 61 | 997.3 |
| 20260506133017 | 44 | 0 | 5.2 | 10.4 | 0.00 | 0.00 | 0.00 | 65 | 997.0 |
| 20260506130017 | 44 | 0 | 7.0 | 11.3 | 0.00 | 0.00 | 0.00 | 67 | 997.2 |
| 20260506123037 | 43 | 0 | 6.1 | 10.4 | 0.00 | 0.00 | 0.00 | 70 | 996.8 |
| 20260506120018 | 41 | 0 | 6.1 | 8.7 | 0.00 | 0.00 | 0.00 | 75 | 996.0 |
| 20260506113017 | 41 | 0 | 6.1 | 7.8 | 0.00 | 0.00 | 0.00 | 76 | 995.2 |
| 20260506110058 | 40 | 0 | 5.2 | 7.0 | 0.00 | 0.01 | 0.00 | 76 | 994.6 |
| 20260506103017 | 41 | 0 | 4.3 | 7.0 | 0.00 | 0.01 | 0.00 | 74 | 994.6 |
| 20260506100038 | 41 | 0 | 5.2 | 7.8 | 0.00 | 0.01 | 0.00 | 74 | 994.2 |
| 20260506093038 | 42 | 0 | 4.3 | 6.1 | 0.00 | 0.01 | 0.00 | 72 | 994.4 |
| 20260506090017 | 44 | 0 | 3.5 | 6.1 | 0.00 | 0.01 | 0.00 | 68 | 994.1 |
| 20260506083017 | 45 | 0 | 3.5 | 6.1 | 0.00 | 0.01 | 0.00 | 66 | 993.7 |
| 20260506073017 | 46 | 0 | 2.6 | 5.2 | 0.00 | 0.01 | 0.00 | 65 | 993.6 |
| 20260506043018 | 49 | 0 | 5.2 | 15.6 | 0.00 | 0.01 | 0.00 | 66 | 992.0 |
| 20260506040017 | 50 | 0 | 3.5 | 8.7 | 0.00 | 0.01 | 0.00 | 66 | 992.0 |
| 20260506033017 | 51 | 0 | 7.0 | 9.6 | 0.00 | 0.01 | 0.00 | 65 | 992.0 |
| 20260506030017 | 50 | 0 | 7.0 | 8.7 | 0.00 | 0.01 | 0.00 | 65 | 992.0 |
| 20260506023017 | 51 | 0 | 5.2 | 7.8 | 0.00 | 0.01 | 0.00 | 63 | 991.7 |
| 20260506020038 | 51 | 0 | 5.2 | 7.0 | 0.00 | 0.01 | 0.00 | 61 | 991.3 |
| 20260506013038 | 53 | 0 | 5.2 | 7.0 | 0.00 | 0.01 | 0.00 | 59 | 990.7 |
| 20260506010022 | 54 | 0 | 4.3 | 7.0 | 0.00 | 0.01 | 0.00 | 57 | 990.6 |
| 20260506003017 | 55 | 0 | 3.5 | 7.0 | 0.00 | 0.01 | 0.00 | 51 | 990.6 |
| 20260506000017 | 55 | 0 | 4.3 | 8.7 | 0.00 | 0.11 | 0.00 | 49 | 990.5 |
| 20260505233038 | 55 | 0 | 4.3 | 11.3 | 0.00 | 0.11 | 0.00 | 49 | 990.8 |
| 20260505230018 | 55 | 0 | 5.2 | 12.2 | 0.00 | 0.11 | 0.00 | 48 | 990.5 |
| 20260505223018 | 55 | 0 | 8.7 | 14.8 | 0.00 | 0.11 | 0.00 | 49 | 990.6 |
| 20260505220038 | 55 | 0 | 7.8 | 15.6 | 0.00 | 0.11 | 0.00 | 48 | 991.0 |
| 20260505213018 | 55 | 0 | 9.6 | 18.2 | 0.00 | 0.11 | 0.00 | 49 | 991.1 |
| 20260505210022 | 56 | 0 | 9.6 | 17.4 | 0.00 | 0.11 | 0.00 | 48 | 991.3 |